Buffalo, NY

10:14 PM EDT on April 23, 2017 (GMT -0400)
Buffalo Niagara International

Weather History for KBUF - February, 2014

Change the Weather History Date:

Tuesday, February 18, 2014

  Actual Average Record
Temperature  
Mean Temperature 27 °F 27 °F  
Max Temperature 31 °F 34 °F 63 °F (1981)
Min Temperature 22 °F 19 °F -18 °F (1979)
Degree Days  
Heating Degree Days 38 38  
Month to date heating degree days 856 712  
Since 1 July heating degree days 4703 4371  
Cooling Degree Days 0 0  
Month to date cooling degree days 0 0  
Year to date cooling degree days 0 0  
Moisture  
Dew Point 20 °F    
Average Humidity 68    
Maximum Humidity 96    
Minimum Humidity 39    
Precipitation  
Precipitation 0.20 in 0.08 in 0.90 in (1938)
Month to date precipitation 1.61 1.57  
Year to date precipitation 4.77 4.75  
Snow  
Snow 2.10 in 0.60 in 4.90 in (1958)
Month to date snowfall 16.6 11.5  
Since 1 July snowfall 97.5 73.0  
Snow Depth 7.00 in    
Sea Level Pressure  
Sea Level Pressure 29.88 in    
Wind  
Wind Speed 17 mph (SSW)    
Max Wind Speed 32 mph    
Max Gust Speed 44 mph    
Visibility 5 miles    
Events Snow    
T = Trace of Precipitation, MM = Missing Value Source: NWS Daily Summary

Daily Weather History Graph

Daily Weather History Graph

Search for Another Location

Airport or City:

Trip Planner

Search our weather history database for the weather conditions in past years. The results will help you decide how hot, cold, wet, or windy it might be!

Date:

Astronomy

Feb. 18, 2014 Rise Set
Actual Time 7:07 AM EST 5:50 PM EST
Civil Twilight 6:39 AM EST 6:19 PM EST
Nautical Twilight 6:06 AM EST 6:52 PM EST
Astronomical Twilight 5:33 AM EST 7:25 PM EST
Moon 9:48 PM EST (2/18) 8:33 AM EST (2/18)
Length of Visible Light 11h 40m
Length of Day
10h 42m
Waning Gibbous, 87% of the Moon is Illuminated
Feb 18
Waning Gibbous
Feb 22
Last Quarter
Mar 1
New
Mar 8
First Quarter
Mar 16
Full

Hourly Weather History & Observations

Time (EST) Temp. Windchill Dew Point Humidity Pressure Visibility Wind Dir Wind Speed Gust Speed Precip Events Conditions
12:54 AM 30.9 °F 18.7 °F 8.1 °F 38% 29.80 in 10.0 mi SSE 19.6 mph - N/A   Overcast
1:54 AM 28.0 °F 16.1 °F 19.0 °F 69% 29.78 in 5.0 mi SSE 16.1 mph 26.5 mph 0.00 in Snow Light Snow
2:54 AM 28.9 °F 14.3 °F 19.9 °F 69% 29.75 in 6.0 mi South 26.5 mph 38.0 mph 0.00 in Snow Light Snow
3:54 AM 30.0 °F 16.6 °F 19.9 °F 66% 29.73 in 9.0 mi South 23.0 mph 27.6 mph 0.00 in Snow Light Snow
4:54 AM 28.9 °F 17.7 °F 23.0 °F 78% 29.74 in 5.0 mi South 15.0 mph - 0.00 in Snow Light Snow
5:54 AM 30.0 °F 20.5 °F 23.0 °F 75% 29.73 in 9.0 mi South 11.5 mph - 0.01 in Snow Light Snow
6:16 AM 30.2 °F 19.3 °F 24.8 °F 80% 29.71 in 2.0 mi SSW 15.0 mph - 0.00 in Snow Light Snow
6:39 AM 30.2 °F 17.4 °F 26.6 °F 86% 29.73 in 1.0 mi SW 20.7 mph 27.6 mph 0.00 in Snow Light Snow
6:54 AM 28.0 °F 13.3 °F 25.0 °F 88% 29.77 in 1.0 mi SW 25.3 mph 31.1 mph 0.00 in Snow Light Snow
7:54 AM 26.1 °F 12.0 °F 23.0 °F 88% 29.81 in 1.0 mi SW 20.7 mph 38.0 mph 0.01 in Snow Light Snow
8:54 AM 25.0 °F 9.9 °F 21.0 °F 85% 29.84 in 1.2 mi SW 23.0 mph 29.9 mph 0.01 in Snow Light Snow
9:54 AM 23.0 °F 6.9 °F 21.7 °F 95% 29.87 in 0.8 mi SW 24.2 mph 33.4 mph 0.00 in Snow Light Snow
10:54 AM 21.9 °F 4.8 °F 19.0 °F 89% 29.90 in 0.5 mi SW 26.5 mph 39.1 mph 0.00 in Snow Light Snow
11:54 AM 21.9 °F 4.8 °F 19.0 °F 89% 29.94 in 0.5 mi WSW 26.5 mph 36.8 mph 0.00 in Snow Light Snow
12:54 PM 23.0 °F 6.3 °F 19.9 °F 88% 29.95 in 1.0 mi WSW 26.5 mph 33.4 mph 0.01 in Snow Light Snow
1:54 PM 24.1 °F 9.4 °F 19.0 °F 81% 29.99 in 2.0 mi SW 20.7 mph 27.6 mph 0.00 in Snow Light Snow
2:54 PM 23.0 °F 8.0 °F 19.0 °F 85% 30.00 in 3.0 mi SW 20.7 mph 31.1 mph 0.00 in Snow Light Snow
3:15 PM 24.8 °F 11.9 °F 17.6 °F 74% 29.97 in 9.0 mi SW 16.1 mph 25.3 mph N/A   Scattered Clouds
3:54 PM 24.1 °F 8.7 °F 18.0 °F 77% 30.01 in 7.0 mi SW 23.0 mph 35.7 mph 0.00 in   Scattered Clouds
4:31 PM 24.8 °F 11.5 °F 19.4 °F 80% 30.00 in 10.0 mi SW 17.3 mph 24.2 mph 0.00 in Snow Light Snow
4:54 PM 25.0 °F 11.7 °F 19.9 °F 81% 30.01 in 9.0 mi SW 17.3 mph 25.3 mph 0.00 in   Mostly Cloudy
5:35 PM 24.8 °F 12.9 °F 19.4 °F 80% 29.98 in 8.0 mi SW 13.8 mph - N/A   Scattered Clouds
5:54 PM 25.0 °F 13.6 °F 19.9 °F 81% 30.02 in 8.0 mi SW 12.7 mph - N/A   Scattered Clouds
7:54 PM 25.0 °F 16.3 °F 21.0 °F 85% 29.99 in 7.0 mi South 8.1 mph - N/A   Mostly Cloudy
8:54 PM 24.1 °F 15.2 °F 19.0 °F 81% 29.92 in 8.0 mi SE 8.1 mph - N/A   Mostly Cloudy
9:54 PM 26.1 °F 16.8 °F 19.0 °F 75% 29.92 in 9.0 mi SE 9.2 mph - N/A   Mostly Cloudy
10:54 PM 27.0 °F - 19.9 °F 75% 29.91 in 10.0 mi Calm Calm - N/A   Mostly Cloudy
11:54 PM 26.1 °F 19.4 °F 19.9 °F 78% 29.88 in 9.0 mi ESE 5.8 mph - N/A   Overcast